Location: Bern�tre
(50.1974°N, 2.0915°E)
Time: 06:24:17
(UTC+00:00)

USA 234 - Pass Details

Date: 18 September 2020
Orbit: 1102 x 1106 km, 123.0° (Epoch: 16 October)

Event Time Altitude Azimuth Distance (km) Brightness Sun altitude
Rises 23:43:10 0° 77° (ENE) 3,922 6.3 -38.4°
Reaches altitude 10° 23:45:43 10° 73° (ENE) 2,964 5.6 -38.4°
Enters shadow 23:50:38 43° 34° (NE) 1,498 4.1 -38.4°
Exits shadow 23:54:28 34° 309° (NW) 1,747 4.4 -38.4°
Drops below altitude 10° 23:58:12 10° 289° (WNW) 2,967 5.6 -38.3°
Sets 00:00:45 0° 284° (WNW) 3,925 6.3 -38.3°
